Probability
6 6 13 32 45 58 68 65 71 45 39 29 16 10 3 3 10 10 6 10 10 13 16 16 23 26 26 32 35 48 52 52 23 16 16 16 26 19 6 16 3 3 0
3 6 6 10 19 42 42 55 52 42 29 16 16 6 3 3 10 6 3 3 6 10 10 13 13 19 19 29 32 39 39 35 23 10 6 13 16 13 10 3 0 0 0
3 3 3 6 10 19 23 29 42 32 26 13 16 10 3 3 0 0 0 0 3 6 6 10 10 16 23 23 29 26 32 19 19 10 0 0 0 3 3 0 0 0 0
0 3 3 3 3 6 10 19 19 23 13 6 13 6 3 0 0 0 0 0 0 3 3 3 3 10 16 13 16 26 19 19 10 6 0 0 0 0 0 0 0 0 0
0 3 3 3 3 3 3 6 3 10 6 3 3 0 0 0 0 0 0 0 0 0 0 0 0 0 0 6 3 13 10 10 3 0 0 0 0 0 0 0 0 0 0
0 0 3 3 3 0 0 0 3 0 6 6 3 0 0 0 0 0 0 0 0 0 0 0 0 0 0 0 0 0 0 0 0 0 0 0 0 0 0 0 0 0 0
0 0 3 3 3 0 0 0 0 0 0 3 3 3 0 0 0 0 0 0 0 0 0 0 0 0 0 0 0 0 0 0 0 0 0 0 0 0 0 0 0 0 0
0 0 0 0 0 3 0 0 0 0 0 0 0 3 0 0 0 0 0 0 0 0 0 0 0 0 0 0 0 0 0 0 0 0 0 0 0 0 0 0 0 0 0
0 0 0 0 0 0 3 3 0 0 0 0 0 0 0 0 0 0 0 0 0 0 0 0 0 0 0 0 0 0 0 0 0 0 0 0 0 0 0 0 0 0 0
0 0 0 0 0 0 0 3 3 0 0 0 0 0 0 0 0 0 0 0 0 0 0 0 0 0 0 0 0 0 0 0 0 0 0 0 0 0 0 0 0 0 0
0 0 0 0 0 0 0 3 3 3 0 0 0 0 0 0 0 0 0 0 0 0 0 0 0 0 0 0 0 0 0 0 0 0 0 0 0 0 0 0 0 0 0
0 0 0 0 0 0 0 0 3 3 0 0 0 0 0 0 0 0 0 0 0 0 0 0 0 0 0 0 0 0 0 0 0 0 0 0 0 0 0 0 0 0 0
0 0 0 0 0 0 0 0 0 0 3 0 0 0 0 0 0 0 0 0 0 0 0 0 0 0 0 0 0 0 0 0 0 0 0 0 0 0 0 0 0 0 0
0 0 0 0 0 0 0 0 0 0 3 3 3 0 0 0 0 0 0 0 0 0 0 0 0 0 0 0 0 0 0 0 0 0 0 0 0 0 0 0 0 0 0
0 0 0 0 0 0 0 0 0 0 0 3 3 0 0 0 0 0 0 0 0 0 0 0 0 0 0 0 0 0 0 0 0 0 0 0 0 0 0 0 0 0 0
0 0 0 0 0 0 0 0 0 0 0 0 0 0 0 0 0 0 0 0 0 0 0 0 0 0 0 0 0 0 0 0 0 0 0 0 0 0 0 0 0 0 0
0 0 0 0 0 0 0 0 0 0 0 0 0 0 0 0 0 0 0 0 0 0 0 0 0 0 0 0 0 0 0 0 0 0 0 0 0 0 0 0 0 0 0
0 0 0 0 0 0 0 0 0 0 0 0 0 0 0 0 0 0 0 0 0 0 0 0 0 0 0 0 0 0 0 0 0 0 0 0 0 0 0 0 0 0 0
0 0 0 0 0 0 0 0 0 0 0 0 0 0 0 0 0 0 0 0 0 0 0 0 0 0 0 0 0 0 0 0 0 0 0 0 0 0 0 0 0 0 0
0 0 0 0 0 0 0 0 0 0 0 0 0 0 0 0 0 0 0 0 0 0 0 0 0 0 0 0 0 0 0 0 0 0 0 0 0 0 0 0 0 0 0
0 0 0 0 0 0 0 0 0 0 0 0 0 0 0 0 0 0 0 0 0 0 0 0 0 0 0 0 0 0 0 0 0 0 0 0 0 0 0 0 0 0 0
0 0 0 0 0 0 0 0 0 0 0 0 0 0 0 0 0 0 0 0 0 0 0 0 0 0 0 0 0 0 0 0 0 0 0 0 0 0 0 0 0 0 0
0 0 0 0 0 0 0 0 0 0 0 0 0 0 0 0 0 0 0 0 0 0 0 0 0 0 0 0 0 0 0 0 0 0 0 0 0 0 0 0 0 0 0
0 0 0 0 0 0 0 0 0 0 0 0 0 0 0 0 0 0 0 0 0 0 0 0 0 0 0 0 0 0 0 0 0 0 0 0 0 0 0 0 0 0 0
0 0 0 0 0 0 0 0 0 0 0 0 0 0 0 0 0 0 0 0 0 0 0 0 0 0 0 0 0 0 0 0 0 0 0 0 0 0 0 0 0 0 0
0 0 0 0 0 0 0 0 0 0 0 0 0 0 0 0 0 0 0 0 0 0 0 0 0 0 0 0 0 0 0 0 0 0 0 0 0 0 0 0 0 0 0
Height
5769 5767 5764 5762 5760 5758 5756 5754 5752 5751 5749 5747 5745 5743 5741 5739 5737 5734 5731 5728 5725 5723 5720 5718 5717 5716 5716 5716 5717 5718 5719 5721 5723 5726 5729 5731 5734 5737 5739 5742 5744 5747 5750
5756 5753 5751 5748 5746 5744 5743 5741 5739 5738 5737 5735 5734 5732 5730 5728 5726 5724 5721 5719 5716 5713 5711 5709 5707 5706 5706 5706 5706 5708 5709 5711 5714 5717 5720 5722 5725 5728 5730 5733 5736 5739 5742
5741 5738 5735 5733 5731 5730 5728 5727 5725 5724 5723 5722 5721 5720 5719 5717 5715 5713 5711 5709 5706 5703 5701 5699 5697 5696 5696 5696 5696 5697 5699 5701 5704 5707 5710 5713 5716 5719 5721 5724 5728 5730 5733
5724 5721 5718 5716 5714 5713 5712 5711 5710 5709 5709 5708 5708 5707 5706 5705 5704 5702 5700 5698 5696 5694 5691 5689 5688 5686 5686 5686 5687 5688 5690 5692 5695 5698 5701 5704 5707 5710 5713 5716 5719 5722 5725
5704 5701 5699 5697 5695 5694 5694 5693 5694 5693 5693 5693 5693 5693 5693 5692 5692 5691 5689 5688 5686 5684 5682 5681 5679 5678 5677 5678 5679 5680 5682 5684 5687 5690 5692 5695 5698 5701 5705 5708 5711 5714 5717
5683 5680 5677 5675 5674 5673 5673 5674 5675 5675 5676 5677 5678 5678 5679 5679 5679 5679 5678 5677 5676 5675 5674 5672 5671 5670 5670 5670 5671 5672 5674 5677 5679 5682 5685 5688 5691 5694 5698 5701 5704 5707 5710
5659 5656 5653 5652 5651 5651 5651 5652 5654 5656 5657 5659 5661 5663 5664 5666 5667 5667 5667 5667 5666 5666 5665 5664 5663 5663 5662 5663 5664 5665 5667 5670 5672 5675 5678 5681 5684 5688 5691 5694 5697 5700 5704
5634 5631 5629 5627 5627 5627 5628 5630 5632 5635 5638 5641 5644 5647 5649 5651 5653 5655 5656 5656 5656 5657 5656 5656 5656 5656 5656 5657 5658 5659 5661 5663 5666 5668 5672 5675 5678 5682 5685 5688 5691 5694 5697
5610 5607 5605 5604 5604 5604 5605 5607 5610 5614 5617 5621 5626 5630 5634 5637 5640 5643 5644 5646 5647 5648 5649 5649 5649 5649 5650 5651 5652 5654 5656 5658 5661 5664 5667 5670 5674 5677 5680 5683 5686 5689 5692
5589 5587 5585 5583 5583 5583 5585 5587 5590 5594 5598 5603 5608 5613 5619 5623 5627 5630 5633 5636 5638 5640 5641 5642 5643 5644 5645 5646 5648 5650 5652 5655 5658 5660 5663 5667 5670 5673 5676 5679 5682 5685 5687
5574 5571 5569 5568 5568 5568 5569 5571 5573 5576 5580 5586 5591 5597 5604 5610 5615 5619 5622 5626 5629 5631 5633 5635 5637 5639 5641 5642 5645 5647 5649 5652 5655 5658 5661 5664 5667 5670 5673 5676 5678 5681 5684
5562 5560 5558 5557 5556 5556 5557 5558 5559 5562 5565 5570 5576 5582 5590 5596 5602 5608 5612 5617 5620 5623 5626 5629 5632 5634 5636 5638 5641 5643 5646 5649 5652 5655 5658 5661 5664 5667 5670 5673 5676 5679 5682
5553 5550 5548 5547 5546 5546 5546 5547 5548 5550 5552 5556 5563 5569 5577 5584 5591 5597 5602 5607 5612 5616 5619 5623 5626 5629 5631 5634 5637 5640 5643 5646 5649 5652 5655 5658 5662 5665 5668 5671 5674 5677 5680
5543 5541 5539 5537 5536 5536 5536 5536 5537 5538 5541 5545 5551 5557 5565 5573 5580 5587 5593 5599 5604 5609 5614 5618 5621 5625 5628 5631 5634 5638 5641 5644 5648 5651 5654 5658 5661 5664 5667 5670 5673 5675 5678
5532 5530 5528 5527 5526 5526 5526 5526 5527 5528 5531 5535 5540 5547 5555 5563 5571 5579 5586 5593 5598 5604 5609 5613 5618 5622 5625 5629 5632 5636 5640 5643 5647 5650 5653 5657 5660 5663 5666 5669 5671 5673 5675
5520 5518 5517 5516 5515 5515 5515 5515 5516 5519 5521 5525 5531 5538 5546 5554 5563 5571 5579 5586 5592 5598 5604 5610 5615 5619 5624 5627 5631 5635 5639 5643 5646 5650 5653 5656 5659 5662 5665 5667 5669 5671 5672
5508 5506 5506 5505 5504 5504 5505 5506 5507 5510 5513 5517 5523 5530 5539 5548 5557 5565 5573 5581 5587 5594 5600 5606 5612 5617 5622 5626 5630 5634 5638 5642 5646 5649 5652 5655 5658 5660 5663 5665 5666 5668 5669
5496 5495 5495 5494 5494 5495 5495 5497 5499 5502 5505 5510 5517 5524 5533 5543 5552 5561 5569 5576 5583 5590 5597 5604 5609 5615 5620 5625 5629 5634 5638 5641 5645 5648 5651 5654 5656 5658 5660 5662 5663 5664 5664
5485 5485 5485 5485 5485 5486 5487 5489 5492 5495 5500 5505 5512 5521 5530 5540 5549 5558 5566 5574 5582 5589 5596 5602 5608 5614 5619 5624 5628 5633 5637 5640 5644 5647 5649 5652 5654 5656 5657 5658 5659 5659 5659
5476 5476 5476 5477 5477 5479 5481 5484 5487 5491 5497 5504 5511 5521 5530 5539 5548 5557 5566 5573 5580 5588 5595 5602 5608 5613 5618 5623 5628 5632 5635 5639 5642 5645 5647 5649 5651 5652 5653 5654 5654 5654 5654
5470 5470 5470 5471 5472 5474 5477 5481 5485 5491 5497 5504 5513 5522 5532 5541 5549 5558 5566 5574 5581 5588 5595 5601 5607 5612 5617 5622 5626 5630 5634 5637 5640 5642 5644 5646 5647 5648 5649 5649 5649 5649 5648
5464 5465 5466 5467 5469 5473 5477 5481 5486 5492 5499 5507 5516 5524 5533 5542 5551 5559 5567 5575 5582 5589 5595 5601 5607 5612 5616 5621 5625 5628 5632 5634 5637 5639 5640 5642 5643 5643 5644 5644 5644 5643 5642
5462 5464 5465 5467 5470 5475 5479 5484 5491 5497 5505 5513 5521 5529 5537 5545 5553 5561 5569 5576 5583 5590 5595 5601 5606 5611 5615 5619 5623 5626 5629 5631 5633 5635 5636 5637 5638 5638 5638 5638 5638 5637 5636
5462 5465 5467 5471 5475 5480 5485 5491 5498 5504 5512 5519 5527 5535 5542 5550 5557 5565 5572 5578 5585 5590 5595 5600 5605 5609 5613 5617 5620 5623 5625 5628 5629 5631 5632 5632 5633 5633 5633 5632 5631 5631 5629
5465 5469 5472 5476 5481 5487 5493 5499 5505 5512 5519 5526 5534 5541 5548 5555 5562 5568 5574 5580 5586 5591 5596 5600 5604 5608 5611 5615 5617 5620 5622 5624 5625 5626 5626 5627 5627 5627 5626 5625 5625 5624 5622
5472 5475 5479 5484 5489 5495 5501 5507 5514 5520 5527 5533 5540 5547 5553 5559 5566 5572 5577 5582 5587 5591 5596 5599 5603 5606 5609 5612 5614 5616 5618 5619 5620 5620 5621 5621 5621 5620 5619 5619 5618 5617 5615
Wind_Speed
45 44 44 44 43 43 42 41 40 39 38 37 36 36 35 35 35 35 35 35 35 34 34 33 33 34 34 35 35 37 37 37 37 36 36 36 36 35 35 35 35 35 35
49 49 49 48 48 47 46 45 43 41 40 39 38 38 37 36 36 36 36 35 35 34 34 33 33 32 33 33 34 35 36 36 37 36 36 36 37 37 37 36 35 35 36
54 54 54 53 52 52 51 49 47 45 43 42 40 40 39 38 37 37 37 36 35 34 33 32 31 31 31 31 32 33 34 35 36 36 36 36 37 37 37 36 35 35 37
58 59 59 58 57 56 55 53 52 50 48 45 43 42 41 40 39 38 37 36 34 33 33 32 30 30 29 29 29 30 31 32 33 35 35 36 37 37 37 36 36 36 36
64 64 64 63 62 60 59 57 55 54 51 49 47 44 43 41 39 38 37 36 34 33 32 31 29 28 27 26 27 28 29 30 31 33 34 35 35 35 35 35 35 34 35
69 69 69 67 66 65 63 61 59 56 54 51 49 46 44 42 40 39 37 36 34 33 31 29 28 25 24 24 25 27 28 29 30 32 32 33 34 33 32 32 33 32 31
72 72 72 71 70 67 65 63 61 58 56 53 50 47 44 43 41 39 37 35 33 31 29 27 26 24 22 23 24 25 26 27 28 28 30 30 31 30 29 29 30 29 28
73 72 72 71 69 67 65 63 61 58 55 52 49 47 44 43 41 39 37 35 33 30 27 25 23 22 21 21 22 23 23 24 26 27 27 26 26 26 26 26 26 26 26
65 64 63 62 61 60 59 57 56 54 52 50 47 45 43 41 40 38 36 34 31 28 26 23 21 20 19 20 21 21 22 22 23 23 23 23 24 24 24 24 24 24 23
52 51 50 49 48 48 47 47 47 47 47 46 45 43 42 40 38 36 35 33 30 27 25 23 20 19 19 18 18 17 17 19 20 21 21 21 22 22 21 21 21 20 18
40 38 38 37 37 37 37 38 40 42 43 43 42 42 41 39 37 35 33 31 29 26 24 22 20 19 18 17 17 17 17 18 20 20 21 21 21 20 19 18 17 16 14
33 32 31 30 30 30 31 32 34 36 38 40 40 40 39 38 37 34 33 31 29 26 23 21 20 20 19 18 17 18 19 20 20 20 19 19 19 19 17 15 13 12 11
32 30 29 28 27 27 27 28 30 31 33 34 36 36 37 37 36 33 31 31 28 25 23 21 20 20 20 19 19 19 19 18 18 17 17 16 16 15 14 13 12 11 9
32 30 29 28 27 27 27 28 27 28 29 30 33 34 34 35 35 33 30 30 28 25 23 22 20 20 20 20 19 19 18 17 17 16 16 15 15 14 13 12 11 10 10
33 31 30 29 28 27 27 27 26 27 27 27 31 34 33 34 33 33 31 30 28 25 24 23 22 21 20 19 19 19 19 18 17 17 16 16 15 14 13 12 11 11 10
33 32 31 29 28 28 26 26 25 26 26 27 31 34 33 33 33 33 32 31 29 28 26 24 23 22 21 20 19 19 19 18 17 17 16 15 14 13 12 12 11 11 11
32 31 30 29 28 26 25 24 24 24 24 26 30 33 33 33 33 33 33 31 30 29 27 26 25 24 22 21 21 20 19 18 17 16 15 14 13 12 12 12 12 12 13
29 27 27 26 25 24 22 22 22 22 23 26 29 32 34 35 33 33 33 31 31 30 28 27 26 25 24 22 21 20 19 18 17 16 15 14 13 12 12 12 13 13 14
25 23 23 22 21 20 19 19 20 20 21 24 28 32 33 34 34 34 32 31 31 29 28 27 26 25 23 22 21 20 18 17 16 15 14 13 13 13 13 13 13 14 15
19 18 18 17 16 15 15 16 17 20 21 24 28 32 34 33 34 34 33 32 31 30 28 27 25 24 23 21 20 19 18 16 15 15 14 13 13 13 13 14 14 15 16
15 14 13 12 11 11 13 15 18 21 23 26 31 33 34 33 32 32 32 31 30 29 27 26 25 24 22 21 19 18 17 16 15 15 14 14 13 14 14 15 15 16 17
9 8 7 7 8 12 15 18 21 25 28 30 32 34 33 33 33 33 32 31 29 28 26 25 24 23 21 20 19 17 16 16 15 15 14 14 15 15 16 16 17 18 18
3 3 5 8 13 17 19 22 25 27 29 30 31 32 32 32 33 32 31 29 27 26 25 24 23 22 21 19 18 17 16 16 15 15 15 15 16 16 17 18 19 20 20
6 8 11 15 19 21 23 25 27 29 29 30 31 32 31 30 30 30 28 26 25 24 23 22 21 20 19 18 17 17 16 16 16 16 16 16 17 18 18 19 20 21 22
12 15 17 20 22 24 25 26 28 29 29 29 31 30 29 28 28 27 25 24 23 22 21 20 19 18 17 17 16 16 16 16 16 17 17 18 18 19 20 21 21 22 23
19 20 22 24 25 27 27 27 28 28 28 29 28 27 26 26 25 23 22 21 21 19 18 17 17 16 15 15 15 15 16 16 16 17 18 18 19 20 21 22 22 23 23
Wind_Direction
283 283 284 285 285 285 285 284 284 284 284 284 284 285 286 287 289 292 294 295 294 291 289 284 280 276 271 266 261 258 256 255 252 249 248 248 248 248 247 248 247 246 247
282 282 283 284 284 284 285 284 283 283 283 282 283 284 284 285 287 289 291 292 292 291 289 285 281 277 271 266 261 258 255 253 251 249 247 247 248 247 247 247 246 246 246
281 282 282 282 282 283 283 283 282 282 282 281 281 281 282 282 284 286 288 289 289 289 288 285 281 277 272 266 260 256 253 251 249 248 246 245 245 245 244 243 244 246 245
280 281 281 281 280 280 281 280 280 280 281 280 279 279 279 279 280 283 285 286 286 286 286 283 280 276 270 264 259 253 249 248 247 246 245 243 243 243 242 243 244 246 245
280 279 279 278 278 279 279 279 278 278 278 278 277 276 276 276 277 279 281 282 283 283 283 281 278 274 266 261 256 250 247 244 243 243 242 242 241 241 241 242 242 243 245
280 279 278 277 277 277 277 276 276 275 275 275 274 273 272 272 272 275 277 278 279 279 279 277 274 271 264 258 252 248 246 243 242 240 242 241 240 240 240 239 239 242 242
280 279 278 277 277 276 275 275 274 273 272 271 270 269 268 267 268 270 272 273 275 274 274 274 271 265 259 254 251 246 242 240 238 237 238 238 236 236 236 236 237 238 238
281 280 279 278 277 275 274 273 271 270 268 267 265 263 262 262 262 264 265 267 269 269 269 269 265 261 253 249 246 241 238 238 236 234 231 229 228 230 232 231 231 233 235
284 282 280 278 275 273 271 269 267 264 263 261 259 256 255 255 256 256 259 263 263 261 263 261 259 254 248 243 239 235 234 232 228 223 220 220 222 224 225 227 229 229 231
288 285 282 278 275 272 268 264 260 258 256 254 251 249 247 248 249 250 253 255 255 254 255 255 252 246 239 232 230 227 225 221 218 215 215 216 220 223 223 224 225 222 219
293 289 285 281 277 272 268 263 258 254 251 249 246 241 239 240 241 243 246 246 246 246 246 244 240 233 228 223 221 222 222 219 217 217 215 213 213 214 214 214 212 212 209
297 293 288 284 280 276 271 266 260 255 251 245 240 235 233 234 233 235 237 238 238 237 235 233 229 225 223 219 218 218 217 218 217 215 214 210 207 204 203 200 194 189 192
297 294 290 286 282 278 273 269 264 257 250 241 235 229 227 227 225 226 229 229 230 227 224 223 221 219 216 212 212 210 208 209 209 207 204 200 197 193 190 190 190 191 199
295 292 288 284 282 278 274 270 264 255 245 238 230 224 221 219 219 217 217 219 216 214 212 213 213 211 205 200 200 199 196 194 192 191 188 188 186 186 190 193 196 203 214
292 289 287 285 282 277 273 269 263 252 244 236 226 221 217 214 213 210 209 209 207 204 202 203 203 201 196 192 191 190 188 187 187 185 184 183 184 187 191 197 206 215 226
290 287 284 283 280 276 272 268 260 249 242 233 224 218 212 208 204 202 201 201 199 197 197 197 195 193 191 189 187 186 185 185 184 183 182 184 187 193 201 209 217 227 238
287 284 282 280 277 274 269 263 253 244 236 226 218 211 206 201 198 195 194 194 192 190 191 192 191 190 188 187 186 184 183 183 183 184 186 191 198 206 214 223 232 241 249
285 281 278 275 273 270 264 256 244 238 228 218 210 202 199 196 192 190 188 187 186 185 186 186 185 184 183 182 182 182 183 186 189 192 196 203 211 220 229 237 244 251 257
282 279 275 271 269 266 257 243 233 224 214 205 197 193 190 187 186 185 183 181 179 180 181 180 180 180 179 180 182 184 187 191 196 201 207 215 224 232 240 247 253 259 265
280 278 273 268 262 254 237 222 211 199 191 186 184 182 181 180 181 182 179 176 175 176 178 180 180 181 182 184 187 190 193 197 203 210 217 226 235 242 249 255 261 266 272
276 273 266 259 246 228 206 192 186 183 178 175 173 174 174 175 176 177 175 173 174 176 178 180 181 183 185 188 191 195 200 206 212 219 227 236 243 250 257 262 267 272 277
271 262 252 236 201 179 170 169 168 166 163 165 168 168 169 171 172 171 171 171 173 176 179 181 183 185 189 193 197 202 208 214 221 229 237 244 251 258 262 267 272 276 280
231 203 174 155 154 154 154 153 153 154 157 160 163 166 167 167 167 168 169 171 174 178 181 183 185 189 192 197 203 209 215 222 229 237 244 251 258 263 267 271 275 278 281
135 135 136 137 138 139 141 144 148 151 153 156 159 160 160 161 164 166 169 172 176 179 182 185 188 192 197 202 209 216 223 230 238 245 251 256 262 267 270 275 278 281 285
120 124 129 132 134 135 139 144 147 149 150 152 156 158 160 162 163 165 168 172 176 179 183 187 191 195 200 207 215 223 231 238 244 250 254 259 265 269 273 277 280 284 287
118 123 126 129 132 136 139 142 145 146 147 149 154 157 158 159 160 164 167 172 176 180 184 189 194 201 208 217 225 232 239 245 250 255 260 263 268 272 275 278 282 285 287